Flag for United Kingdom Weather past 2 weeks in Saint Helier, Jersey, United Kingdom

Now
48 °F

Light rain. Passing clouds.


Feels Like: 44 °F
Forecast: 50 / 58 °F
Wind: 10 mph from Northwest

Location: Jersey Airport


UV Index: 0 (Low)

Visibility: N/A


Pressure: 29.89 "Hg

Humidity: 94%

Dew point: 46 °F

Location of Saint HelierLocation

Historic Weather in Saint Helier

°F

Saint Helier temperature yesterday

Maximum temperature yesterday: 59 °F (at 2:50 PM)
Minimum temperature yesterday: 45 °F (at 6:20 AM)
Average temperature yesterday: 53 °F

Past Weeks' High & Low Weather Summary

 TemperatureHumidityPressure
High63 °F (Apr 16, 4:20 PM)100% (Apr 10, 3:50 AM)30.36 "Hg (Apr 10, 3:50 AM)
Low43 °F (Apr 10, 3:50 AM)45% (Apr 16, 2:20 PM)29.53 "Hg (Apr 20, 1:20 PM)
Average51 °F79%30.06 "Hg
* Reported Apr 10 3:50 AM — Apr 25 3:50 AM, Saint Helier, Weather by CustomWeather, © 2014

Note: Actual official high and low records may vary slightly from our data, if they occured in-between our weather recording intervals... More about our weather records

Advertising

Historic Weather Conditions — Data for Previous 24 hours

 ConditionsComfort  
Time TempWeatherWind HumidityBarometerVisibility
3:50 AM
Apr 25
50 °FLight rain. Passing clouds.13 mph94%29.89 "HgN/A
8:50 PM
Apr 24
52 °FPassing clouds.8 mph88%29.98 "HgN/A
8:20 PM52 °FPassing clouds.9 mph94%29.98 "HgN/A
7:50 PM54 °FPassing clouds.9 mph88%29.98 "HgN/A
7:20 PM54 °FPassing clouds.7 mph88%29.98 "HgN/A
6:50 PM54 °FPassing clouds.5 mph88%29.98 "HgN/A
6:20 PM55 °FPassing clouds.6 mph82%29.98 "HgN/A
5:50 PM55 °FPassing clouds.6 mph82%30.01 "HgN/A
5:20 PM55 °FPassing clouds.5 mph77%30.01 "HgN/A
4:50 PM55 °FPassing clouds.9 mph82%30.01 "HgN/A
4:20 PM55 °FPassing clouds.7 mph82%30.01 "HgN/A
3:50 PM55 °FPassing clouds.8 mph77%30.01 "HgN/A
3:20 PM57 °FPassing clouds.6 mph72%30.04 "HgN/A
2:50 PM59 °FPassing clouds.10 mph63%30.04 "HgN/A
2:20 PM57 °FPassing clouds.14 mph67%30.04 "HgN/A
1:50 PM57 °FPassing clouds.12 mph67%30.04 "HgN/A
1:20 PM57 °FPassing clouds.8 mph72%30.07 "HgN/A
12:50 PM55 °FPassing clouds.10 mph82%30.07 "HgN/A
12:20 PM55 °FPassing clouds.9 mph82%30.07 "HgN/A
11:50 AM54 °FPassing clouds.10 mph88%30.09 "HgN/A
11:20 AM55 °FPassing clouds.12 mph82%30.09 "HgN/A
10:50 AM55 °FPassing clouds.9 mph88%30.09 "HgN/A
10:20 AM54 °FScattered clouds.7 mph94%30.09 "HgN/A
9:50 AM54 °FScattered clouds.9 mph94%30.09 "HgN/A
9:20 AM54 °FPassing clouds.8 mph88%30.09 "HgN/A
8:20 AM52 °FPassing clouds.7 mph94%30.09 "HgN/A
7:50 AM50 °FPassing clouds.6 mph100%30.09 "HgN/A
7:20 AM48 °FPassing clouds.3 mph100%30.09 "HgN/A
6:50 AM46 °FFog.2 mph93%30.09 "HgN/A
6:20 AM45 °FFog.2 mph100%30.09 "HgN/A
5:50 AM46 °FFog.1 mph100%30.09 "HgN/A
5:20 AM46 °FClear.No wind100%30.09 "Hg10 mi
Weather by CustomWeather, © 2014

See weather overview